| time (UTC) | temp F | wind direction | speed MPH | gust MPH | rain 1hr in | rain 24hr in | rain mn in | humidity % | barometer mb |
| 20260504130400 | 87 | 123 | 2.0 | 3.0 | 0.00 | 0.00 | 0.00 | 89 | |
| 20260504110401 | 93 | 201 | 3.0 | 5.0 | 0.00 | 0.00 | 0.00 | 75 | |
| 20260504081901 | 95 | 117 | 3.0 | 6.0 | 0.00 | 0.00 | 0.00 | 69 | |
| 20260504081401 | 95 | 119 | 2.0 | 3.0 | 0.00 | 0.00 | 0.00 | 69 | |
| 20260504080900 | 95 | 81 | 3.0 | 5.0 | 0.00 | 0.00 | 0.00 | 69 | |
| 20260504080400 | 95 | 141 | 4.0 | 5.0 | 0.00 | 0.00 | 0.00 | 69 | |
| 20260504070401 | 96 | 239 | 1.0 | 2.0 | 0.00 | 0.00 | 0.00 | 69 | |
| 20260504050400 | 89 | 35 | 6.0 | 8.0 | 0.00 | 0.00 | 0.00 | 81 | |
| 20260504045901 | 88 | 232 | 4.0 | 7.0 | 0.00 | 0.00 | 0.00 | 82 | |
| 20260504045400 | 88 | 215 | 2.0 | 2.0 | 0.00 | 0.00 | 0.00 | 84 | |
| 20260504044900 | 87 | 157 | 3.0 | 3.0 | 0.00 | 0.00 | 0.00 | 85 | |
| 20260504044400 | 87 | 242 | 5.0 | 6.0 | 0.00 | 0.00 | 0.00 | 84 | |
| 20260504043900 | 87 | 124 | 4.0 | 5.0 | 0.00 | 0.00 | 0.00 | 83 | |
| 20260504043405 | 87 | 217 | 2.0 | 3.0 | 0.00 | 0.00 | 0.00 | 82 | |
| 20260504042901 | 86 | 208 | 5.0 | 7.0 | 0.00 | 0.00 | 0.00 | 82 | |
| 20260504042401 | 86 | 156 | 5.0 | 6.0 | 0.00 | 0.00 | 0.00 | 82 | |
| 20260504041900 | 86 | 112 | 3.0 | 5.0 | 0.00 | 0.00 | 0.00 | 83 | |
| 20260504041401 | 85 | 147 | 2.0 | 3.0 | 0.00 | 0.00 | 0.00 | 83 | |
| 20260504040900 | 85 | 169 | 3.0 | 3.0 | 0.00 | 0.00 | 0.00 | 84 | |
| 20260504040402 | 86 | 139 | 5.0 | 7.0 | 0.00 | 0.00 | 0.00 | 84 | |
| 20260504035900 | 86 | 143 | 3.0 | 6.0 | 0.00 | 0.00 | 0.00 | 83 | |
| 20260504035408 | 86 | 110 | 2.0 | 2.0 | 0.00 | 0.00 | 0.00 | 84 | |
| 20260504034900 | 86 | 118 | 4.0 | 5.0 | 0.00 | 0.00 | 0.00 | 84 | |
| 20260504034401 | 87 | 180 | 5.0 | 9.0 | 0.00 | 0.00 | 0.00 | 83 | |
| 20260504033900 | 87 | 128 | 3.0 | 3.0 | 0.00 | 0.00 | 0.00 | 83 | |
| 20260504033403 | 87 | 96 | 2.0 | 3.0 | 0.00 | 0.00 | 0.00 | 84 | |
| 20260504032900 | 86 | 94 | 1.0 | 2.0 | 0.00 | 0.00 | 0.00 | 84 | |
| 20260504032400 | 86 | 88 | 7.0 | 9.0 | 0.00 | 0.00 | 0.00 | 84 | |
| 20260504031900 | 86 | 98 | 3.0 | 3.0 | 0.00 | 0.00 | 0.00 | 85 | |
| 20260504031400 | 86 | 112 | 4.0 | 8.0 | 0.00 | 0.00 | 0.00 | 85 | |
| 20260504030901 | 86 | 114 | 2.0 | 3.0 | 0.00 | 0.00 | 0.00 | 85 | |
| 20260504030401 | 86 | 134 | 1.0 | 1.0 | 0.00 | 0.00 | 0.00 | 85 | |
| 20260504025900 | 86 | 137 | 3.0 | 5.0 | 0.00 | 0.00 | 0.00 | 85 | |
| 20260504025401 | 86 | 110 | 1.0 | 1.0 | 0.00 | 0.00 | 0.00 | 85 | |
| 20260504024901 | 86 | 117 | 2.0 | 3.0 | 0.00 | 0.00 | 0.00 | 84 | |
| 20260504024401 | 86 | 100 | 2.0 | 2.0 | 0.00 | 0.00 | 0.00 | 84 | |
| 20260504023901 | 86 | 88 | 0.0 | 0.0 | 0.00 | 0.00 | 0.00 | 85 | |
| 20260504023400 | 86 | 94 | 0.0 | 1.0 | 0.00 | 0.00 | 0.00 | 85 | |
| 20260504022900 | 86 | 93 | 2.0 | 2.0 | 0.00 | 0.00 | 0.00 | 85 | |
| 20260504022400 | 85 | 208 | 2.0 | 3.0 | 0.00 | 0.00 | 0.00 | 85 | |
| 20260504021901 | 85 | 130 | 2.0 | 3.0 | 0.00 | 0.00 | 0.00 | 85 | |
| 20260504021400 | 85 | 88 | 2.0 | 3.0 | 0.00 | 0.00 | 0.00 | 85 | |
| 20260504020900 | 85 | 168 | 5.0 | 6.0 | 0.00 | 0.00 | 0.00 | 85 | |
| 20260504020400 | 84 | 167 | 3.0 | 7.0 | 0.00 | 0.00 | 0.00 | 86 | |
| 20260504015900 | 84 | 95 | 5.0 | 7.0 | 0.00 | 0.00 | 0.00 | 87 | |
| 20260504015400 | 84 | 90 | 2.0 | 2.0 | 0.00 | 0.00 | 0.00 | 88 | |
| 20260504014900 | 83 | 132 | 3.0 | 3.0 | 0.00 | 0.00 | 0.00 | 88 | |
| 20260504014400 | 83 | 131 | 2.0 | 2.0 | 0.00 | 0.00 | 0.00 | 89 | |
| 20260504013901 | 83 | 151 | 2.0 | 2.0 | 0.00 | 0.00 | 0.00 | 89 | |
| 20260504013401 | 83 | 132 | 5.0 | 9.0 | 0.00 | 0.00 | 0.00 | 89 | |
| 20260504012900 | 83 | 97 | 3.0 | 3.0 | 0.00 | 0.00 | 0.00 | 89 | |
| 20260504012401 | 83 | 114 | 3.0 | 5.0 | 0.00 | 0.00 | 0.00 | 89 | |
| 20260504011900 | 83 | 152 | 4.0 | 6.0 | 0.00 | 0.00 | 0.00 | 89 | |
| 20260504011401 | 83 | 106 | 4.0 | 6.0 | 0.00 | 0.00 | 0.00 | 89 | |
| 20260504010901 | 82 | 96 | 3.0 | 3.0 | 0.00 | 0.00 | 0.00 | 88 | |
| 20260504010400 | 82 | 108 | 1.0 | 2.0 | 0.00 | 0.00 | 0.00 | 88 | |
| 20260504005901 | 82 | 122 | 4.0 | 7.0 | 0.00 | 0.00 | 0.00 | 89 | |
| 20260504005400 | 82 | 114 | 3.0 | 3.0 | 0.00 | 0.00 | 0.00 | 89 | |
| 20260504004901 | 83 | 26 | 2.0 | 3.0 | 0.00 | 0.00 | 0.00 | 89 | |
| 20260504004401 | 83 | 86 | 2.0 | 3.0 | 0.00 | 0.00 | 0.00 | 89 | |
| 20260504003900 | 83 | 119 | 3.0 | 5.0 | 0.00 | 0.00 | 0.00 | 87 | |
| 20260504003400 | 83 | 103 | 3.0 | 5.0 | 0.00 | 0.00 | 0.00 | 86 |